Location: Noordwijk
(52.2400°N, 4.4500°E)
Time: 21:27:26
(UTC+00:00)

CAS-4A - Pass Details

Date: 09 December 2022
Orbit: 514 x 531 km, 43.0° (Epoch: 05 February)

Event Time Altitude Azimuth Distance (km) Brightness Sun altitude
Exits shadow 04:54:55 17° 183° (S) 1,403 ? -23.8°
Maximum altitude 04:55:53 18° 165° (SSE) 1,345 ? -23.6°
Drops below altitude 10° 04:58:39 10° 122° (ESE) 1,778 ? -23.2°
Sets 05:01:26 0° 103° (ESE) 2,673 ? -22.8°
